Midland, MI

3:30 AM EDT on March 26, 2017 (GMT -0400)
Barstow

Weather History for KIKW - October, 2012

Change the Weather History Date:

Saturday, October 13, 2012

  Actual Average (KMBS) Record (KMBS)
Temperature  
Mean Temperature 40 °F -  
Max Temperature 51 °F 59 °F 81 °F (2008)
Min Temperature 28 °F 38 °F 32 °F (2006)
Degree Days  
Heating Degree Days 26    
Moisture  
Dew Point 39 °F    
Average Humidity 90    
Maximum Humidity 99    
Minimum Humidity 74    
Precipitation  
Precipitation 0.25 in - - ()
Sea Level Pressure  
Sea Level Pressure 30.10 in    
Wind  
Wind Speed 3 mph (SSE)    
Max Wind Speed 12 mph    
Max Gust Speed -    
Visibility 7 miles    
Events Rain    
Averages and records for this station are not official NWS values.
T = Trace of Precipitation, MM = Missing Value Source: NWS Daily Summary

Daily Weather History Graph

Daily Weather History Graph

Search for Another Location

Airport or City:

Trip Planner

Search our weather history database for the weather conditions in past years. The results will help you decide how hot, cold, wet, or windy it might be!

Date:

Astronomy

Oct. 13, 2012 Rise Set
Actual Time 7:49 AM EDT 6:56 PM EDT
Civil Twilight 7:20 AM EDT 7:24 PM EDT
Nautical Twilight 6:47 AM EDT 7:58 PM EDT
Astronomical Twilight 6:14 AM EDT 8:31 PM EDT
Moon 5:35 AM EDT (10/13) 5:41 PM EDT (10/13)
Length of Visible Light 12h 04m
Length of Day
11h 06m
Waning Crescent, 5% of the Moon is Illuminated
Oct 13
Waning Crescent
Oct 15
New
Oct 21
First Quarter
Oct 29
Full
Nov 6
Last Quarter

Hourly Weather History & Observations

Time (EDT) Temp. Windchill Dew Point Humidity Pressure Visibility Wind Dir Wind Speed Gust Speed Precip Events Conditions
12:14 AM 32.9 °F - 27.5 °F 81% 30.37 in 10.0 mi Calm Calm - N/A   Clear
12:34 AM 32.0 °F - 27.5 °F 83% 30.36 in 10.0 mi Calm Calm - N/A   Clear
12:53 AM 32.0 °F - 28.0 °F 85% 30.35 in 10.0 mi Calm Calm - N/A   Clear
1:13 AM 33.1 °F - 27.9 °F 81% 30.35 in 10.0 mi Calm Calm - N/A   Clear
1:53 AM 31.8 °F 28.5 °F 28.4 °F 87% 30.34 in 10.0 mi ENE 3.5 mph - N/A   Clear
2:14 AM 32.0 °F 28.7 °F 28.2 °F 86% 30.33 in 10.0 mi East 3.5 mph - N/A   Clear
2:34 AM 32.4 °F - 28.4 °F 85% 30.32 in 10.0 mi Calm Calm - N/A   Clear
2:53 AM 30.2 °F 26.7 °F 28.0 °F 92% 30.32 in 10.0 mi ENE 3.5 mph - N/A   Clear
3:14 AM 29.1 °F - 27.3 °F 93% 30.32 in 10.0 mi Calm Calm - N/A   Clear
3:33 AM 28.2 °F 24.4 °F 27.1 °F 96% 30.31 in 10.0 mi ENE 3.5 mph - N/A   Clear
3:53 AM 30.7 °F - 28.8 °F 92% 30.30 in 10.0 mi Calm Calm - N/A   Clear
4:14 AM 32.0 °F - 28.9 °F 88% 30.30 in 10.0 mi Calm Calm - N/A   Clear
4:33 AM 34.3 °F 29.2 °F 30.4 °F 85% 30.28 in 10.0 mi SE 5.8 mph - N/A   Clear
4:53 AM 35.6 °F - 30.6 °F 82% 30.29 in 10.0 mi Calm Calm - N/A   Scattered Clouds
5:14 AM 36.0 °F 33.3 °F 30.9 °F 82% 30.29 in 10.0 mi SSE 3.5 mph - N/A   Scattered Clouds
5:33 AM 37.0 °F 34.5 °F 31.6 °F 81% 30.29 in 10.0 mi South 3.5 mph - N/A   Clear
5:53 AM 37.4 °F 34.9 °F 32.0 °F 81% 30.28 in 10.0 mi South 3.5 mph - N/A   Scattered Clouds
6:14 AM 37.9 °F 32.7 °F 32.0 °F 79% 30.27 in 10.0 mi South 6.9 mph - N/A   Scattered Clouds
6:33 AM 38.1 °F 34.6 °F 31.6 °F 77% 30.27 in 10.0 mi SSE 4.6 mph - N/A   Scattered Clouds
6:53 AM 38.1 °F 32.3 °F 31.8 °F 78% 30.27 in 10.0 mi South 8.1 mph - N/A   Scattered Clouds
7:13 AM 38.3 °F 33.9 °F 32.0 °F 78% 30.26 in 10.0 mi SSE 5.8 mph - N/A   Scattered Clouds
7:33 AM 39.2 °F 35.9 °F 32.0 °F 75% 30.26 in 10.0 mi SSE 4.6 mph - N/A   Clear
7:54 AM 39.2 °F 33.6 °F 32.0 °F 75% 30.25 in 10.0 mi South 8.1 mph - N/A   Mostly Cloudy
8:13 AM 39.6 °F - 32.0 °F 74% 30.25 in 10.0 mi Calm Calm - N/A   Overcast
8:33 AM 39.4 °F - 32.5 °F 76% 30.25 in 10.0 mi Calm Calm - N/A Rain Light Rain
8:54 AM 39.2 °F 35.0 °F 33.8 °F 81% 30.26 in 10.0 mi SSE 5.8 mph - N/A Rain Light Rain
9:13 AM 38.5 °F 34.1 °F 34.2 °F 84% 30.25 in 10.0 mi SSE 5.8 mph - N/A Rain Light Rain
9:53 AM 38.3 °F 33.2 °F 34.7 °F 87% 30.24 in 7.0 mi South 6.9 mph - 0.01 in Rain Light Rain
10:34 AM 39.2 °F 33.6 °F 36.3 °F 89% 30.21 in 10.0 mi SSE 8.1 mph - N/A   Light Drizzle
10:53 AM 39.4 °F 33.8 °F 36.1 °F 88% 30.20 in 10.0 mi SE 8.1 mph - N/A Rain Light Rain
11:34 AM 40.5 °F 36.5 °F 37.2 °F 88% 30.17 in 10.0 mi SSE 5.8 mph - N/A Rain Light Rain
11:53 AM 41.0 °F 35.2 °F 37.6 °F 88% 30.14 in 10.0 mi SSE 9.2 mph - N/A Rain Light Rain
12:14 PM 41.2 °F 36.0 °F 38.8 °F 91% 30.12 in 10.0 mi South 8.1 mph - N/A Rain Light Rain
12:34 PM 41.7 °F 35.2 °F 39.9 °F 93% 30.11 in 10.0 mi SSE 11.5 mph - N/A   Overcast
12:53 PM 42.3 °F 36.8 °F 40.6 °F 94% 30.09 in 7.0 mi SSE 9.2 mph - N/A   Drizzle
1:14 PM 42.8 °F 39.3 °F 41.4 °F 95% 30.07 in 7.0 mi SSE 5.8 mph - 0.01 in Rain Light Rain
1:34 PM 42.8 °F 38.6 °F 41.4 °F 95% 30.04 in 5.0 mi SE 6.9 mph - 0.03 in Rain Light Rain
1:53 PM 42.8 °F 38.6 °F 41.9 °F 97% 30.02 in 5.0 mi SE 6.9 mph - 0.04 in Rain Light Rain
2:14 PM 43.7 °F 40.3 °F 42.8 °F 97% 30.00 in 7.0 mi SSE 5.8 mph - N/A Rain Light Rain
2:33 PM 44.2 °F 41.8 °F 43.3 °F 97% 29.99 in 7.0 mi SSE 4.6 mph - N/A   Overcast
2:54 PM 44.6 °F 42.2 °F 43.7 °F 97% 29.98 in 5.0 mi SSE 4.6 mph - N/A Rain Rain
3:14 PM 45.5 °F 43.2 °F 44.6 °F 97% 29.97 in 5.0 mi South 4.6 mph - N/A Rain Light Rain
3:33 PM 45.7 °F 43.4 °F 44.8 °F 97% 29.96 in 4.0 mi SSE 4.6 mph - 0.01 in   Heavy Drizzle
3:54 PM 46.2 °F 43.3 °F 45.1 °F 96% 29.94 in 5.0 mi SSE 5.8 mph - 0.02 in Rain Rain
4:14 PM 46.4 °F 43.5 °F 45.1 °F 95% 29.93 in 5.0 mi SSE 5.8 mph - 0.01 in Rain Rain
4:33 PM 46.4 °F 42.9 °F 45.1 °F 95% 29.92 in 5.0 mi South 6.9 mph - 0.03 in Rain Rain
4:54 PM 46.4 °F 42.9 °F 45.1 °F 95% 29.90 in 4.0 mi South 6.9 mph - 0.10 in Rain Light Rain
5:14 PM 46.4 °F 42.4 °F 45.1 °F 95% 29.90 in 5.0 mi South 8.1 mph - 0.01 in Rain Light Rain
5:33 PM 46.4 °F 41.9 °F 45.5 °F 97% 29.89 in 5.0 mi South 9.2 mph - 0.01 in Rain Light Rain
5:54 PM 46.6 °F - 45.7 °F 97% 29.90 in 7.0 mi SSW 6.9 mph - 0.01 in   Overcast
6:14 PM 47.3 °F - 46.4 °F 97% 29.89 in 7.0 mi SSW 5.8 mph - N/A   Overcast
6:34 PM 47.8 °F - 46.8 °F 96% 29.89 in 7.0 mi SSW 6.9 mph - N/A   Drizzle
6:54 PM 47.8 °F - 46.9 °F 97% 29.88 in 7.0 mi South 5.8 mph - N/A   Overcast
7:14 PM 48.2 °F - 47.3 °F 97% 29.86 in 5.0 mi South 5.8 mph - 0.01 in Rain Rain
7:34 PM 48.2 °F - 47.3 °F 97% 29.85 in 5.0 mi South 4.6 mph - 0.02 in Rain Rain
8:14 PM 48.6 °F - 47.8 °F 97% 29.83 in 5.0 mi South 4.6 mph - N/A   Overcast
8:34 PM 49.1 °F - 48.2 °F 97% 29.82 in 4.0 mi SSW 4.6 mph - N/A   Drizzle
8:54 PM 49.3 °F - 48.7 °F 98% 29.82 in 4.0 mi South 3.5 mph - N/A   Overcast
9:13 PM 49.6 °F - 49.1 °F 98% 29.83 in 4.0 mi SSW 4.6 mph - N/A   Overcast
9:34 PM 50.0 °F - 49.5 °F 98% 29.83 in 1.5 mi SSW 4.6 mph - N/A   Overcast
9:54 PM 50.2 °F - 49.8 °F 99% 29.82 in 1.8 mi SSW 4.6 mph - N/A   Overcast
10:13 PM 50.4 °F - 50.0 °F 99% 29.82 in 1.5 mi Calm Calm - N/A   Drizzle
10:34 PM 51.1 °F - 50.9 °F 99% 29.82 in 1.8 mi Calm Calm - 0.04 in Rain Rain
10:54 PM 51.4 °F - 51.1 °F 99% 29.82 in 1.5 mi Calm Calm - 0.05 in   Drizzle
11:14 PM 51.8 °F - 51.4 °F 99% 29.81 in 1.5 mi Calm Calm - N/A   Drizzle